Year,Month,Day,Hour,Minute,Value (Times are PST for temperature in C)
2015,03,02,00,00,3.80
2015,03,02,00,01,3.90
2015,03,02,00,02,3.90
2015,03,02,00,03,3.90
2015,03,02,00,04,3.90
2015,03,02,00,05,3.90
2015,03,02,00,06,3.90
2015,03,02,00,07,3.90
2015,03,02,00,08,3.90
2015,03,02,00,09,3.90
2015,03,02,00,10,3.90
2015,03,02,00,11,3.90
2015,03,02,00,12,3.90
2015,03,02,00,13,3.90
2015,03,02,00,14,3.90
2015,03,02,00,15,3.90
2015,03,02,00,16,3.90
2015,03,02,00,17,3.90
2015,03,02,00,18,3.90
2015,03,02,00,19,3.90
2015,03,02,00,20,3.90
2015,03,02,00,21,3.90
2015,03,02,00,22,4.00
2015,03,02,00,23,4.00
2015,03,02,00,24,3.90
2015,03,02,00,25,3.90
2015,03,02,00,26,3.90
2015,03,02,00,27,3.90
2015,03,02,00,28,3.90
2015,03,02,00,29,3.90
2015,03,02,00,30,3.90
2015,03,02,00,31,3.90
2015,03,02,00,32,3.90
2015,03,02,00,33,3.90
2015,03,02,00,34,3.90
2015,03,02,00,35,3.90
2015,03,02,00,36,3.90
2015,03,02,00,37,3.80
2015,03,02,00,38,3.80
2015,03,02,00,39,3.80
2015,03,02,00,40,3.80
2015,03,02,00,41,3.80
2015,03,02,00,42,3.80
2015,03,02,00,43,3.80
2015,03,02,00,44,3.70
2015,03,02,00,45,3.70
2015,03,02,00,46,3.70
2015,03,02,00,47,3.70
2015,03,02,00,48,3.70
2015,03,02,00,49,3.70
2015,03,02,00,50,3.70
2015,03,02,00,51,3.60
2015,03,02,00,52,3.60
2015,03,02,00,53,3.60
2015,03,02,00,54,3.60
2015,03,02,00,55,3.60
2015,03,02,00,56,3.60
2015,03,02,00,57,3.60
2015,03,02,00,58,3.50
2015,03,02,00,59,3.60
2015,03,02,01,00,3.50
2015,03,02,01,01,3.60
2015,03,02,01,02,3.60
2015,03,02,01,03,3.60
2015,03,02,01,04,3.60
2015,03,02,01,05,3.50
2015,03,02,01,06,3.50
2015,03,02,01,07,3.50
2015,03,02,01,08,3.50
2015,03,02,01,09,3.50
2015,03,02,01,10,3.50
2015,03,02,01,11,3.50
2015,03,02,01,12,3.50
2015,03,02,01,13,3.50
2015,03,02,01,14,3.50
2015,03,02,01,15,3.50
2015,03,02,01,16,3.50
2015,03,02,01,17,3.50
2015,03,02,01,18,3.50
2015,03,02,01,19,3.50
2015,03,02,01,20,3.50
2015,03,02,01,21,3.50
2015,03,02,01,22,3.50
2015,03,02,01,23,3.50
2015,03,02,01,24,3.50
2015,03,02,01,25,3.50
2015,03,02,01,26,3.50
2015,03,02,01,27,3.50
2015,03,02,01,28,3.50
2015,03,02,01,29,3.50
2015,03,02,01,30,3.50
2015,03,02,01,31,3.50
2015,03,02,01,32,3.50
2015,03,02,01,33,3.50
2015,03,02,01,34,3.60
2015,03,02,01,35,3.60
2015,03,02,01,36,3.60
2015,03,02,01,37,3.70
2015,03,02,01,38,3.70
2015,03,02,01,39,3.70
2015,03,02,01,40,3.70
2015,03,02,01,41,3.70
2015,03,02,01,42,3.70
2015,03,02,01,43,3.70
2015,03,02,01,44,3.80
2015,03,02,01,45,3.80
2015,03,02,01,46,3.80
2015,03,02,01,47,3.80
2015,03,02,01,48,3.80
2015,03,02,01,49,3.80
2015,03,02,01,50,3.80
2015,03,02,01,51,3.80
2015,03,02,01,52,3.80
2015,03,02,01,53,3.80
2015,03,02,01,54,3.80
2015,03,02,01,55,3.80
2015,03,02,01,56,3.80
2015,03,02,01,57,3.80
2015,03,02,01,58,3.80
2015,03,02,01,59,3.90
2015,03,02,02,00,3.90
2015,03,02,02,01,3.90
2015,03,02,02,02,3.90
2015,03,02,02,03,3.90
2015,03,02,02,04,4.00
2015,03,02,02,05,3.90
2015,03,02,02,06,4.00
2015,03,02,02,07,4.00
2015,03,02,02,08,3.90
2015,03,02,02,09,3.90
2015,03,02,02,10,3.90
2015,03,02,02,11,3.90
2015,03,02,02,12,3.90
2015,03,02,02,13,3.90
2015,03,02,02,14,3.90
2015,03,02,02,15,3.80
2015,03,02,02,16,3.80
2015,03,02,02,17,3.80
2015,03,02,02,18,3.80
2015,03,02,02,19,3.80
2015,03,02,02,20,3.80
2015,03,02,02,21,3.80
2015,03,02,02,22,3.80
2015,03,02,02,23,3.80
2015,03,02,02,24,3.80
2015,03,02,02,25,3.80
2015,03,02,02,26,3.80
2015,03,02,02,27,3.80
2015,03,02,02,28,3.80
2015,03,02,02,29,3.80
2015,03,02,02,30,3.80
2015,03,02,02,31,3.80
2015,03,02,02,32,3.80
2015,03,02,02,33,3.80
2015,03,02,02,34,3.90
2015,03,02,02,35,3.90
2015,03,02,02,36,3.90
2015,03,02,02,37,3.90
2015,03,02,02,38,3.90
2015,03,02,02,39,3.90
2015,03,02,02,40,3.90
2015,03,02,02,41,4.00
2015,03,02,02,42,4.00
2015,03,02,02,43,4.00
2015,03,02,02,44,4.00
2015,03,02,02,45,4.00
2015,03,02,02,46,4.00
2015,03,02,02,47,4.00
2015,03,02,02,48,4.00
2015,03,02,02,49,4.00
2015,03,02,02,50,4.00
2015,03,02,02,51,4.00
2015,03,02,02,52,4.00
2015,03,02,02,53,4.00
2015,03,02,02,54,4.00
2015,03,02,02,55,4.00
2015,03,02,02,56,4.00
2015,03,02,02,57,4.00
2015,03,02,02,58,4.00
2015,03,02,02,59,4.10
2015,03,02,03,00,4.10
2015,03,02,03,01,4.10
2015,03,02,03,02,4.10
2015,03,02,03,03,4.10
2015,03,02,03,04,4.10
2015,03,02,03,05,4.10
2015,03,02,03,06,4.10
2015,03,02,03,07,4.10
2015,03,02,03,08,4.10
2015,03,02,03,09,4.10
2015,03,02,03,10,4.10
2015,03,02,03,11,4.10
2015,03,02,03,12,4.10
2015,03,02,03,13,4.10
2015,03,02,03,14,4.10
2015,03,02,03,15,4.10
2015,03,02,03,16,4.10
2015,03,02,03,17,4.10
2015,03,02,03,18,4.10
2015,03,02,03,19,4.10
2015,03,02,03,20,4.10
2015,03,02,03,21,4.10
2015,03,02,03,22,4.10
2015,03,02,03,23,4.10
2015,03,02,03,24,4.10
2015,03,02,03,25,4.10
2015,03,02,03,26,4.10
2015,03,02,03,27,4.10
2015,03,02,03,28,4.10
2015,03,02,03,29,4.10
2015,03,02,03,30,4.10
2015,03,02,03,31,4.10
2015,03,02,03,32,4.10
2015,03,02,03,33,4.10
2015,03,02,03,34,4.10
2015,03,02,03,35,4.10
2015,03,02,03,36,4.10
2015,03,02,03,37,4.10
2015,03,02,03,38,4.10
2015,03,02,03,39,4.10
2015,03,02,03,40,4.10
2015,03,02,03,41,4.10
2015,03,02,03,42,4.10
2015,03,02,03,43,4.10
2015,03,02,03,44,4.10
2015,03,02,03,45,4.10
2015,03,02,03,46,4.10
2015,03,02,03,47,4.10
2015,03,02,03,48,4.20
2015,03,02,03,49,4.20
2015,03,02,03,50,4.20
2015,03,02,03,51,4.20
2015,03,02,03,52,4.20
2015,03,02,03,53,4.10
2015,03,02,03,54,4.10
2015,03,02,03,55,4.10
2015,03,02,03,56,4.10
2015,03,02,03,57,4.10
2015,03,02,03,58,4.10
2015,03,02,03,59,4.00
2015,03,02,04,00,4.00
2015,03,02,04,01,4.00
2015,03,02,04,02,3.90
2015,03,02,04,03,3.90
2015,03,02,04,04,3.90
2015,03,02,04,05,3.90
2015,03,02,04,06,3.90
2015,03,02,04,07,3.80
2015,03,02,04,08,3.80
2015,03,02,04,09,3.80
2015,03,02,04,10,3.80
2015,03,02,04,11,3.80
2015,03,02,04,12,3.80
2015,03,02,04,13,3.70
2015,03,02,04,14,3.70
2015,03,02,04,15,3.70
2015,03,02,04,16,3.70
2015,03,02,04,17,3.70
2015,03,02,04,18,3.80
2015,03,02,04,19,3.80
2015,03,02,04,20,3.80
2015,03,02,04,21,3.80
2015,03,02,04,22,3.80
2015,03,02,04,23,3.90
2015,03,02,04,24,3.90
2015,03,02,04,25,3.80
2015,03,02,04,26,3.80
2015,03,02,04,27,3.80
2015,03,02,04,28,3.70
2015,03,02,04,29,3.70
2015,03,02,04,30,3.60
2015,03,02,04,31,3.50
2015,03,02,04,32,3.50
2015,03,02,04,33,3.50
2015,03,02,04,34,3.50
2015,03,02,04,35,3.50
2015,03,02,04,36,3.50
2015,03,02,04,37,3.50
2015,03,02,04,38,3.60
2015,03,02,04,39,3.50
2015,03,02,04,40,3.40
2015,03,02,04,41,3.40
2015,03,02,04,42,3.40
2015,03,02,04,43,3.30
2015,03,02,04,44,3.30
2015,03,02,04,45,3.20
2015,03,02,04,46,3.20
2015,03,02,04,47,3.10
2015,03,02,04,48,3.10
2015,03,02,04,49,3.00
2015,03,02,04,50,3.00
2015,03,02,04,51,2.90
2015,03,02,04,52,2.90
2015,03,02,04,53,2.90
2015,03,02,04,54,2.80
2015,03,02,04,55,2.80
2015,03,02,04,56,2.80
2015,03,02,04,57,2.70
2015,03,02,04,58,2.70
2015,03,02,04,59,2.70
2015,03,02,05,00,2.70
2015,03,02,05,01,2.60
2015,03,02,05,02,2.60
2015,03,02,05,03,2.60
2015,03,02,05,04,2.60
2015,03,02,05,05,2.60
2015,03,02,05,06,2.60
2015,03,02,05,07,2.50
2015,03,02,05,08,2.50
2015,03,02,05,09,2.50
2015,03,02,05,10,2.40
2015,03,02,05,11,2.40
2015,03,02,05,12,2.40
2015,03,02,05,13,2.40
2015,03,02,05,14,2.40
2015,03,02,05,15,2.40
2015,03,02,05,16,2.40
2015,03,02,05,17,2.40
2015,03,02,05,18,2.40
2015,03,02,05,19,2.40
2015,03,02,05,20,2.40
2015,03,02,05,21,2.40
2015,03,02,05,22,2.40
2015,03,02,05,23,2.30
2015,03,02,05,24,2.30
2015,03,02,05,25,2.30
2015,03,02,05,26,2.30
2015,03,02,05,27,2.30
2015,03,02,05,28,2.30
2015,03,02,05,29,2.20
2015,03,02,05,30,2.30
2015,03,02,05,31,2.20
2015,03,02,05,32,2.20
2015,03,02,05,33,2.20
2015,03,02,05,34,2.20
2015,03,02,05,35,2.20
2015,03,02,05,36,2.10
2015,03,02,05,37,2.10
2015,03,02,05,38,2.10
2015,03,02,05,39,2.00
2015,03,02,05,40,2.00
2015,03,02,05,41,1.90
2015,03,02,05,42,1.90
2015,03,02,05,43,1.90
2015,03,02,05,44,1.90
2015,03,02,05,45,1.90
2015,03,02,05,46,1.80
2015,03,02,05,47,1.80
2015,03,02,05,48,1.80
2015,03,02,05,49,1.80
2015,03,02,05,50,1.80
2015,03,02,05,51,1.70
2015,03,02,05,52,1.70
2015,03,02,05,53,1.70
2015,03,02,05,54,1.70
2015,03,02,05,55,1.60
2015,03,02,05,56,1.60
2015,03,02,05,57,1.70
2015,03,02,05,58,1.70
2015,03,02,05,59,1.70
2015,03,02,06,00,1.70
2015,03,02,06,01,1.70
2015,03,02,06,02,1.70
2015,03,02,06,03,1.60
2015,03,02,06,04,1.60
2015,03,02,06,05,1.50
2015,03,02,06,06,1.50
2015,03,02,06,07,1.50
2015,03,02,06,08,1.50
2015,03,02,06,09,1.40
2015,03,02,06,10,1.40
2015,03,02,06,11,1.40
2015,03,02,06,12,1.40
2015,03,02,06,13,1.40
2015,03,02,06,14,1.30
2015,03,02,06,15,1.30
2015,03,02,06,16,1.20
2015,03,02,06,17,1.10
2015,03,02,06,18,1.10
2015,03,02,06,19,1.00
2015,03,02,06,20,1.00
2015,03,02,06,21,1.00
2015,03,02,06,22,1.00
2015,03,02,06,23,1.00
2015,03,02,06,24,1.00
2015,03,02,06,25,1.00
2015,03,02,06,26,0.90
2015,03,02,06,27,0.90
2015,03,02,06,28,0.80
2015,03,02,06,29,0.80
2015,03,02,06,30,0.80
2015,03,02,06,31,0.80
2015,03,02,06,32,0.70
2015,03,02,06,33,0.70
2015,03,02,06,34,0.70
2015,03,02,06,35,0.70
2015,03,02,06,36,0.70
2015,03,02,06,37,0.70
2015,03,02,06,38,0.70
2015,03,02,06,39,0.70
2015,03,02,06,40,0.80
2015,03,02,06,41,0.80
2015,03,02,06,42,0.80
2015,03,02,06,43,0.80
2015,03,02,06,44,0.80
2015,03,02,06,45,0.80
2015,03,02,06,46,0.80
2015,03,02,06,47,0.70
2015,03,02,06,48,0.70
2015,03,02,06,49,0.70
2015,03,02,06,50,0.70
2015,03,02,06,51,0.70
2015,03,02,06,52,0.60
2015,03,02,06,53,0.60
2015,03,02,06,54,0.60
2015,03,02,06,55,0.60
2015,03,02,06,56,0.60
2015,03,02,06,57,0.60
2015,03,02,06,58,0.60
2015,03,02,06,59,0.60
2015,03,02,07,00,0.60
2015,03,02,07,01,0.60
2015,03,02,07,02,0.60
2015,03,02,07,03,0.70
2015,03,02,07,04,0.70
2015,03,02,07,05,0.70
2015,03,02,07,06,0.70
2015,03,02,07,07,0.70
2015,03,02,07,08,0.70
2015,03,02,07,09,0.70
2015,03,02,07,10,0.60
2015,03,02,07,11,0.60
2015,03,02,07,12,0.60
2015,03,02,07,13,0.60
2015,03,02,07,14,0.50
2015,03,02,07,15,0.50
2015,03,02,07,16,0.50
2015,03,02,07,17,0.40
2015,03,02,07,18,0.40
2015,03,02,07,19,0.40
2015,03,02,07,20,0.40
2015,03,02,07,21,0.30
2015,03,02,07,22,0.30
2015,03,02,07,23,0.30
2015,03,02,07,24,0.20
2015,03,02,07,25,0.20
2015,03,02,07,26,0.20
2015,03,02,07,27,0.20
2015,03,02,07,28,0.20
2015,03,02,07,29,0.20
2015,03,02,07,30,0.20
2015,03,02,07,31,0.20
2015,03,02,07,32,0.20
2015,03,02,07,33,0.20
2015,03,02,07,34,0.20
2015,03,02,07,35,0.20
2015,03,02,07,36,0.20
2015,03,02,07,37,0.20
2015,03,02,07,38,0.20
2015,03,02,07,39,0.20
2015,03,02,07,40,0.30
2015,03,02,07,41,0.30
2015,03,02,07,42,0.30
2015,03,02,07,43,0.30
2015,03,02,07,44,0.30
2015,03,02,07,45,0.30
2015,03,02,07,46,0.30
2015,03,02,07,47,0.30
2015,03,02,07,48,0.30
2015,03,02,07,49,0.40
2015,03,02,07,50,0.40
2015,03,02,07,51,0.50
2015,03,02,07,52,0.50
2015,03,02,07,53,0.60
2015,03,02,07,54,0.60
2015,03,02,07,55,0.60
2015,03,02,07,56,0.70
2015,03,02,07,57,0.70
2015,03,02,07,58,0.70
2015,03,02,07,59,0.80
2015,03,02,08,00,0.80
2015,03,02,08,01,0.80
2015,03,02,08,02,0.80
2015,03,02,08,03,0.90
2015,03,02,08,04,0.90
2015,03,02,08,05,1.00
2015,03,02,08,06,1.10
2015,03,02,08,07,1.20
2015,03,02,08,08,1.20
2015,03,02,08,09,1.30
2015,03,02,08,10,1.40
2015,03,02,08,11,1.40
2015,03,02,08,12,1.50
2015,03,02,08,13,1.60
2015,03,02,08,14,1.60
2015,03,02,08,15,1.70
2015,03,02,08,16,1.70
2015,03,02,08,17,1.80
2015,03,02,08,18,1.80
2015,03,02,08,19,1.90
2015,03,02,08,20,2.00
2015,03,02,08,21,2.00
2015,03,02,08,22,2.10
2015,03,02,08,23,2.10
2015,03,02,08,24,2.10
2015,03,02,08,25,2.00
2015,03,02,08,26,2.00
2015,03,02,08,27,2.00
2015,03,02,08,28,2.00
2015,03,02,08,29,2.10
2015,03,02,08,30,2.20
2015,03,02,08,31,2.20
2015,03,02,08,32,2.30
2015,03,02,08,33,2.30
2015,03,02,08,34,2.40
2015,03,02,08,35,2.40
2015,03,02,08,36,2.50
2015,03,02,08,37,2.60
2015,03,02,08,38,2.60
2015,03,02,08,39,2.70
2015,03,02,08,40,2.70
2015,03,02,08,41,2.80
2015,03,02,08,42,2.80
2015,03,02,08,43,2.80
2015,03,02,08,44,2.90
2015,03,02,08,45,3.00
2015,03,02,08,46,3.00
2015,03,02,08,47,3.10
2015,03,02,08,48,3.10
2015,03,02,08,49,3.20
2015,03,02,08,50,3.20
2015,03,02,08,51,3.30
2015,03,02,08,52,3.30
2015,03,02,08,53,3.30
2015,03,02,08,54,3.30
2015,03,02,08,55,3.30
2015,03,02,08,56,3.30
2015,03,02,08,57,3.30
2015,03,02,08,58,3.30
2015,03,02,08,59,3.30
2015,03,02,09,00,3.40
2015,03,02,09,01,3.50
2015,03,02,09,02,3.60
2015,03,02,09,03,3.70
2015,03,02,09,04,3.80
2015,03,02,09,05,3.90
2015,03,02,09,06,4.00
2015,03,02,09,07,4.10
2015,03,02,09,08,4.20
2015,03,02,09,09,4.30
2015,03,02,09,10,4.30
2015,03,02,09,11,4.40
2015,03,02,09,12,4.50
2015,03,02,09,13,4.50
2015,03,02,09,14,4.60
2015,03,02,09,15,4.60
2015,03,02,09,16,4.70
2015,03,02,09,17,4.70
2015,03,02,09,18,4.80
2015,03,02,09,19,4.80
2015,03,02,09,20,4.90
2015,03,02,09,21,4.90
2015,03,02,09,22,4.90
2015,03,02,09,23,5.00
2015,03,02,09,24,5.00
2015,03,02,09,25,5.10
2015,03,02,09,26,5.20
2015,03,02,09,27,5.30
2015,03,02,09,28,5.30
2015,03,02,09,29,5.40
2015,03,02,09,30,5.40
2015,03,02,09,31,5.50
2015,03,02,09,32,5.60
2015,03,02,09,33,5.60
2015,03,02,09,34,5.60
2015,03,02,09,35,5.60
2015,03,02,09,36,5.60
2015,03,02,09,37,5.70
2015,03,02,09,38,5.70
2015,03,02,09,39,5.70
2015,03,02,09,40,5.70
2015,03,02,09,41,5.70
2015,03,02,09,42,5.80
2015,03,02,09,43,5.80
2015,03,02,09,44,5.80
2015,03,02,09,45,5.80
2015,03,02,09,46,5.90
2015,03,02,09,47,5.90
2015,03,02,09,48,5.90
2015,03,02,09,49,5.90
2015,03,02,09,50,6.00
2015,03,02,09,51,6.00
2015,03,02,09,52,6.00
2015,03,02,09,53,6.10
2015,03,02,09,54,6.10
2015,03,02,09,55,6.20
2015,03,02,09,56,6.20
2015,03,02,09,57,6.30
2015,03,02,09,58,6.30
2015,03,02,09,59,6.30
2015,03,02,10,00,6.40
2015,03,02,10,01,6.40
2015,03,02,10,02,6.40
2015,03,02,10,03,6.40
2015,03,02,10,04,6.50
2015,03,02,10,05,6.50
2015,03,02,10,06,6.50
2015,03,02,10,07,6.50
2015,03,02,10,08,6.60
2015,03,02,10,09,6.60
2015,03,02,10,10,6.60
2015,03,02,10,11,6.60
2015,03,02,10,12,6.70
2015,03,02,10,13,6.80
2015,03,02,10,14,6.80
2015,03,02,10,15,6.90
2015,03,02,10,16,6.90
2015,03,02,10,17,7.00
2015,03,02,10,18,7.10
2015,03,02,10,19,7.10
2015,03,02,10,20,7.20
2015,03,02,10,21,7.30
2015,03,02,10,22,7.30
2015,03,02,10,23,7.40
2015,03,02,10,24,7.50
2015,03,02,10,25,7.50
2015,03,02,10,26,7.60
2015,03,02,10,27,7.60
2015,03,02,10,28,7.60
2015,03,02,10,29,7.70
2015,03,02,10,30,7.70
2015,03,02,10,31,7.70
2015,03,02,10,32,7.70
2015,03,02,10,33,7.70
2015,03,02,10,34,7.80
2015,03,02,10,35,7.80
2015,03,02,10,36,7.90
2015,03,02,10,37,7.90
2015,03,02,10,38,8.00
2015,03,02,10,39,8.10
2015,03,02,10,40,8.10
2015,03,02,10,41,8.20
2015,03,02,10,42,8.20
2015,03,02,10,43,8.20
2015,03,02,10,44,8.20
2015,03,02,10,45,8.20
2015,03,02,10,46,8.20
2015,03,02,10,47,8.20
2015,03,02,10,48,8.20
2015,03,02,10,49,8.20
2015,03,02,10,50,8.20
2015,03,02,10,51,8.20
2015,03,02,10,52,8.20
2015,03,02,10,53,8.20
2015,03,02,10,54,8.20
2015,03,02,10,55,8.20
2015,03,02,10,56,8.20
2015,03,02,10,57,8.20
2015,03,02,10,58,8.20
2015,03,02,10,59,8.10
2015,03,02,11,00,8.10
2015,03,02,11,01,8.10
2015,03,02,11,02,8.00
2015,03,02,11,03,8.00
2015,03,02,11,04,7.90
2015,03,02,11,05,7.80
2015,03,02,11,06,7.80
2015,03,02,11,07,7.80
2015,03,02,11,08,7.80
2015,03,02,11,09,7.90
2015,03,02,11,10,7.90
2015,03,02,11,11,8.00
2015,03,02,11,12,8.00
2015,03,02,11,13,8.00
2015,03,02,11,14,8.10
2015,03,02,11,15,8.10
2015,03,02,11,16,8.20
2015,03,02,11,17,8.30
2015,03,02,11,18,8.40
2015,03,02,11,19,8.40
2015,03,02,11,20,8.50
2015,03,02,11,21,8.50
2015,03,02,11,22,8.50
2015,03,02,11,23,8.50
2015,03,02,11,24,8.50
2015,03,02,11,25,8.50
2015,03,02,11,26,8.40
2015,03,02,11,27,8.30
2015,03,02,11,28,8.30
2015,03,02,11,29,8.30
2015,03,02,11,30,8.30
2015,03,02,11,31,8.30
2015,03,02,11,32,8.30
2015,03,02,11,33,8.30
2015,03,02,11,34,8.30
2015,03,02,11,35,8.30
2015,03,02,11,36,8.30
2015,03,02,11,37,8.40
2015,03,02,11,38,8.50
2015,03,02,11,39,8.50
2015,03,02,11,40,8.60
2015,03,02,11,41,8.60
2015,03,02,11,42,8.60
2015,03,02,11,43,8.60
2015,03,02,11,44,8.60
2015,03,02,11,45,8.70
2015,03,02,11,46,8.70
2015,03,02,11,47,8.80
2015,03,02,11,48,8.90
2015,03,02,11,49,9.00
2015,03,02,11,50,9.10
2015,03,02,11,51,9.30
2015,03,02,11,52,9.30
2015,03,02,11,53,9.40
2015,03,02,11,54,9.50
2015,03,02,11,55,9.50
2015,03,02,11,56,9.60
2015,03,02,11,57,9.60
2015,03,02,11,58,9.60
2015,03,02,11,59,9.60
2015,03,02,12,00,9.60
2015,03,02,12,01,9.60
2015,03,02,12,02,9.60
2015,03,02,12,03,9.60
2015,03,02,12,04,9.70
2015,03,02,12,05,9.70
2015,03,02,12,06,9.70
2015,03,02,12,07,9.70
2015,03,02,12,08,9.80
2015,03,02,12,09,9.80
2015,03,02,12,10,9.90
2015,03,02,12,11,9.90
2015,03,02,12,12,9.90
2015,03,02,12,13,9.90
2015,03,02,12,14,9.90
2015,03,02,12,15,9.90
2015,03,02,12,16,10.00
2015,03,02,12,17,10.10
2015,03,02,12,18,10.10
2015,03,02,12,19,10.10
2015,03,02,12,20,10.10
2015,03,02,12,21,10.10
2015,03,02,12,22,10.10
2015,03,02,12,23,10.10
2015,03,02,12,24,10.20
2015,03,02,12,25,10.30
2015,03,02,12,26,10.30
2015,03,02,12,27,10.20
2015,03,02,12,28,10.30
2015,03,02,12,29,10.30
2015,03,02,12,30,10.30
2015,03,02,12,31,10.40
2015,03,02,12,32,10.40
2015,03,02,12,33,10.50
2015,03,02,12,34,10.60
2015,03,02,12,35,10.60
2015,03,02,12,36,10.60
2015,03,02,12,37,10.50
2015,03,02,12,38,10.50
2015,03,02,12,39,10.40
2015,03,02,12,40,10.40
2015,03,02,12,41,10.40
2015,03,02,12,42,10.50
2015,03,02,12,43,10.50
2015,03,02,12,44,10.60
2015,03,02,12,45,10.70
2015,03,02,12,46,10.70
2015,03,02,12,47,10.80
2015,03,02,12,48,10.80
2015,03,02,12,49,10.80
2015,03,02,12,50,10.80
2015,03,02,12,51,10.80
2015,03,02,12,52,10.70
2015,03,02,12,53,10.70
2015,03,02,12,54,10.70
2015,03,02,12,55,10.70
2015,03,02,12,56,10.70
2015,03,02,12,57,10.70
2015,03,02,12,58,10.80
2015,03,02,12,59,10.80
2015,03,02,13,00,10.80
2015,03,02,13,01,10.90
2015,03,02,13,02,10.90
2015,03,02,13,03,11.00
2015,03,02,13,04,11.00
2015,03,02,13,05,10.90
2015,03,02,13,06,10.90
2015,03,02,13,07,10.90
2015,03,02,13,08,10.80
2015,03,02,13,09,10.80
2015,03,02,13,10,10.80
2015,03,02,13,11,10.80
2015,03,02,13,12,10.90
2015,03,02,13,13,10.90
2015,03,02,13,14,11.00
2015,03,02,13,15,11.10
2015,03,02,13,16,11.10
2015,03,02,13,17,11.10
2015,03,02,13,18,11.10
2015,03,02,13,19,11.00
2015,03,02,13,20,10.90
2015,03,02,13,21,10.90
2015,03,02,13,22,10.90
2015,03,02,13,23,10.90
2015,03,02,13,24,10.90
2015,03,02,13,25,10.90
2015,03,02,13,26,10.90
2015,03,02,13,27,11.00
2015,03,02,13,28,11.00
2015,03,02,13,29,11.10
2015,03,02,13,30,11.20
2015,03,02,13,31,11.30
2015,03,02,13,32,11.30
2015,03,02,13,33,11.40
2015,03,02,13,34,11.40
2015,03,02,13,35,11.50
2015,03,02,13,36,11.50
2015,03,02,13,37,11.50
2015,03,02,13,38,11.40
2015,03,02,13,39,11.40
2015,03,02,13,40,11.40
2015,03,02,13,41,11.40
2015,03,02,13,42,11.40
2015,03,02,13,43,11.30
2015,03,02,13,44,11.20
2015,03,02,13,45,11.20
2015,03,02,13,46,11.20
2015,03,02,13,47,11.20
2015,03,02,13,48,11.30
2015,03,02,13,49,11.30
2015,03,02,13,50,11.30
2015,03,02,13,51,11.30
2015,03,02,13,52,11.30
2015,03,02,13,53,11.30
2015,03,02,13,54,11.30
2015,03,02,13,55,11.20
2015,03,02,13,56,11.20
2015,03,02,13,57,11.10
2015,03,02,13,58,11.10
2015,03,02,13,59,11.00
2015,03,02,14,00,11.00
2015,03,02,14,01,11.10
2015,03,02,14,02,11.10
2015,03,02,14,03,11.20
2015,03,02,14,04,11.20
2015,03,02,14,05,11.20
2015,03,02,14,06,11.20
2015,03,02,14,07,11.20
2015,03,02,14,08,11.20
2015,03,02,14,09,11.20
2015,03,02,14,10,11.30
2015,03,02,14,11,11.30
2015,03,02,14,12,11.30
2015,03,02,14,13,11.30
2015,03,02,14,14,11.30
2015,03,02,14,15,11.30
2015,03,02,14,16,11.30
2015,03,02,14,17,11.30
2015,03,02,14,18,11.40
2015,03,02,14,19,11.40
2015,03,02,14,20,11.50
2015,03,02,14,21,11.50
2015,03,02,14,22,11.40
2015,03,02,14,23,11.40
2015,03,02,14,24,11.30
2015,03,02,14,25,11.30
2015,03,02,14,26,11.30
2015,03,02,14,27,11.40
2015,03,02,14,28,11.50
2015,03,02,14,29,11.50
2015,03,02,14,30,11.50
2015,03,02,14,31,11.50
2015,03,02,14,32,11.50
2015,03,02,14,33,11.60
2015,03,02,14,34,11.60
2015,03,02,14,35,11.50
2015,03,02,14,36,11.50
2015,03,02,14,37,11.40
2015,03,02,14,38,11.50
2015,03,02,14,39,11.50
2015,03,02,14,40,11.60
2015,03,02,14,41,11.60
2015,03,02,14,42,11.60
2015,03,02,14,43,11.70
2015,03,02,14,44,11.70
2015,03,02,14,45,11.70
2015,03,02,14,46,11.60
2015,03,02,14,47,11.60
2015,03,02,14,48,11.70
2015,03,02,14,49,11.60
2015,03,02,14,50,11.50
2015,03,02,14,51,11.50
2015,03,02,14,52,11.50
2015,03,02,14,53,11.50
2015,03,02,14,54,11.60
2015,03,02,14,55,11.60
2015,03,02,14,56,11.70
2015,03,02,14,57,11.70
2015,03,02,14,58,11.70
2015,03,02,14,59,11.70
2015,03,02,15,00,11.70
2015,03,02,15,01,11.60
2015,03,02,15,02,11.60
2015,03,02,15,03,11.60
2015,03,02,15,04,11.60
2015,03,02,15,05,11.60
2015,03,02,15,06,11.70
2015,03,02,15,07,11.70
2015,03,02,15,08,11.70
2015,03,02,15,09,11.60
2015,03,02,15,10,11.60
2015,03,02,15,11,11.60
2015,03,02,15,12,11.60
2015,03,02,15,13,11.60
2015,03,02,15,14,11.60
2015,03,02,15,15,11.60
2015,03,02,15,16,11.60
2015,03,02,15,17,11.60
2015,03,02,15,18,11.60
2015,03,02,15,19,11.60
2015,03,02,15,20,11.70
2015,03,02,15,21,11.70
2015,03,02,15,22,11.70
2015,03,02,15,23,11.70
2015,03,02,15,24,11.70
2015,03,02,15,25,11.70
2015,03,02,15,26,11.70
2015,03,02,15,27,11.70
2015,03,02,15,28,11.70
2015,03,02,15,29,11.70
2015,03,02,15,30,11.60
2015,03,02,15,31,11.60
2015,03,02,15,32,11.60
2015,03,02,15,33,11.60
2015,03,02,15,34,11.60
2015,03,02,15,35,11.60
2015,03,02,15,36,11.70
2015,03,02,15,37,11.70
2015,03,02,15,38,11.80
2015,03,02,15,39,11.70
2015,03,02,15,40,11.70
2015,03,02,15,41,11.70
2015,03,02,15,42,11.70
2015,03,02,15,43,11.70
2015,03,02,15,44,11.60
2015,03,02,15,45,11.60
2015,03,02,15,46,11.60
2015,03,02,15,47,11.60
2015,03,02,15,48,11.60
2015,03,02,15,49,11.60
2015,03,02,15,50,11.60
2015,03,02,15,51,11.70
2015,03,02,15,52,11.70
2015,03,02,15,53,11.70
2015,03,02,15,54,11.80
2015,03,02,15,55,11.80
2015,03,02,15,56,11.80
2015,03,02,15,57,11.90
2015,03,02,15,58,11.90
2015,03,02,15,59,11.90
2015,03,02,16,00,11.90
2015,03,02,16,01,11.90
2015,03,02,16,02,11.80
2015,03,02,16,03,11.80
2015,03,02,16,04,11.80
2015,03,02,16,05,11.80
2015,03,02,16,06,11.70
2015,03,02,16,07,11.70
2015,03,02,16,08,11.60
2015,03,02,16,09,11.50
2015,03,02,16,10,11.50
2015,03,02,16,11,11.50
2015,03,02,16,12,11.50
2015,03,02,16,13,11.50
2015,03,02,16,14,11.50
2015,03,02,16,15,11.50
2015,03,02,16,16,11.50
2015,03,02,16,17,11.60
2015,03,02,16,18,11.50
2015,03,02,16,19,11.50
2015,03,02,16,20,11.50
2015,03,02,16,21,11.50
2015,03,02,16,22,11.50
2015,03,02,16,23,11.40
2015,03,02,16,24,11.40
2015,03,02,16,25,11.40
2015,03,02,16,26,11.50
2015,03,02,16,27,11.40
2015,03,02,16,28,11.40
2015,03,02,16,29,11.40
2015,03,02,16,30,11.40
2015,03,02,16,31,11.40
2015,03,02,16,32,11.40
2015,03,02,16,33,11.40
2015,03,02,16,34,11.40
2015,03,02,16,35,11.40
2015,03,02,16,36,11.40
2015,03,02,16,37,11.40
2015,03,02,16,38,11.40
2015,03,02,16,39,11.40
2015,03,02,16,40,11.40
2015,03,02,16,41,11.40
2015,03,02,16,42,11.40
2015,03,02,16,43,11.50
2015,03,02,16,44,11.50
2015,03,02,16,45,11.40
2015,03,02,16,46,11.40
2015,03,02,16,47,11.40
2015,03,02,16,48,11.30
2015,03,02,16,49,11.30
2015,03,02,16,50,11.20
2015,03,02,16,51,11.20
2015,03,02,16,52,11.20
2015,03,02,16,53,11.20
2015,03,02,16,54,11.20
2015,03,02,16,55,11.20
2015,03,02,16,56,11.20
2015,03,02,16,57,11.20
2015,03,02,16,58,11.20
2015,03,02,16,59,11.20
2015,03,02,17,00,11.20
2015,03,02,17,01,11.20
2015,03,02,17,02,11.10
2015,03,02,17,03,11.10
2015,03,02,17,04,11.10
2015,03,02,17,05,11.10
2015,03,02,17,06,11.10
2015,03,02,17,07,11.10
2015,03,02,17,08,11.10
2015,03,02,17,09,11.00
2015,03,02,17,10,11.10
2015,03,02,17,11,11.00
2015,03,02,17,12,11.00
2015,03,02,17,13,11.10
2015,03,02,17,14,11.00
2015,03,02,17,15,11.00
2015,03,02,17,16,11.00
2015,03,02,17,17,11.00
2015,03,02,17,18,10.90
2015,03,02,17,19,10.90
2015,03,02,17,20,10.90
2015,03,02,17,21,10.90
2015,03,02,17,22,10.80
2015,03,02,17,23,10.80
2015,03,02,17,24,10.80
2015,03,02,17,25,10.80
2015,03,02,17,26,10.70
2015,03,02,17,27,10.70
2015,03,02,17,28,10.60
2015,03,02,17,29,10.60
2015,03,02,17,30,10.50
2015,03,02,17,31,10.50
2015,03,02,17,32,10.40
2015,03,02,17,33,10.40
2015,03,02,17,34,10.30
2015,03,02,17,35,10.30
2015,03,02,17,36,10.20
2015,03,02,17,37,10.20
2015,03,02,17,38,10.20
2015,03,02,17,39,10.10
2015,03,02,17,40,10.10
2015,03,02,17,41,10.00
2015,03,02,17,42,9.90
2015,03,02,17,43,9.80
2015,03,02,17,44,9.70
2015,03,02,17,45,9.50
2015,03,02,17,46,9.40
2015,03,02,17,47,9.30
2015,03,02,17,48,9.20
2015,03,02,17,49,9.10
2015,03,02,17,50,9.00
2015,03,02,17,51,8.90